Theta_e
303 303 303 305 306 306 306 307 306 307 309 309 310 311 312 312 311 304 299 302 299 295 295 297 297 291 290 288 280 286 287 288 286 283 285 283 283 285 284 288 284 283 279 276 278 278 276 290 290 283 287 289 291 294
302 302 303 305 305 306 306 306 306 308 309 310 310 311 312 311 311 306 297 302 303 298 295 299 300 301 299 297 289 288 287 288 289 287 288 288 285 287 285 280 291 282 284 280 281 278 286 292 290 293 292 292 295 297
301 301 301 304 305 305 306 307 307 308 309 310 310 311 311 310 310 306 299 300 297 294 294 293 293 298 300 300 300 288 289 293 291 295 291 289 284 288 283 285 285 289 290 285 284 287 288 289 292 293 293 293 298 300
299 300 301 303 304 305 306 307 306 308 309 310 310 310 309 309 310 308 300 301 299 296 290 289 299 297 301 300 298 299 296 296 295 294 292 289 286 291 287 288 285 287 287 285 285 288 288 291 291 292 293 297 298 300
299 299 300 301 303 305 306 306 306 307 308 308 309 309 309 309 309 307 303 302 301 295 290 291 297 298 297 296 297 299 297 295 295 293 291 289 292 291 292 291 286 286 285 283 281 288 288 288 292 294 293 296 298 299
298 299 299 301 303 305 306 306 307 307 307 308 308 309 308 309 306 300 294 298 299 301 293 287 292 293 296 297 298 298 299 299 298 295 293 295 298 293 287 286 289 291 291 290 287 291 291 291 294 295 296 297 299 300
298 299 299 300 302 304 305 306 307 307 307 307 308 308 308 306 302 296 295 300 303 300 294 286 283 293 298 297 297 299 302 300 298 296 294 293 295 295 291 285 290 291 292 290 291 291 290 292 291 295 297 298 300 301
299 299 299 299 301 304 305 306 307 307 307 307 305 305 304 304 302 296 299 303 303 296 294 285 284 287 296 294 296 301 298 300 299 297 297 296 294 293 287 289 291 292 292 290 291 292 292 294 295 295 297 297 297 298
300 299 299 299 300 302 304 305 307 307 305 304 303 303 298 295 292 297 304 304 302 296 290 290 284 280 295 295 295 296 299 291 299 291 291 293 289 285 287 290 291 291 290 289 291 292 293 293 293 293 295 296 296 297
299 299 299 299 299 300 303 305 306 304 304 302 298 295 292 298 307 305 298 292 292 293 292 287 289 285 290 289 290 290 293 289 285 290 297 288 286 290 291 293 293 293 292 292 288 288 291 292 292 292 294 296 297 297
299 299 299 299 299 299 300 302 304 303 301 297 295 294 299 306 301 297 291 290 290 287 288 289 289 285 292 286 287 293 288 288 282 287 287 281 285 292 294 293 295 294 293 293 293 293 294 294 293 293 295 296 297 298
298 299 299 299 299 299 299 300 302 300 298 297 296 299 298 296 294 290 290 292 290 287 290 288 290 290 291 295 295 291 288 289 283 291 286 279 288 293 294 293 293 293 293 292 293 293 294 294 294 294 295 296 297 298
298 298 299 299 300 300 299 299 301 304 300 298 295 293 292 291 285 284 283 287 289 295 297 298 295 295 297 299 295 291 288 285 292 286 282 286 290 294 294 292 292 294 294 293 293 295 295 295 295 295 294 297 298 298
298 298 299 300 300 300 303 303 302 300 297 291 289 283 286 285 286 288 289 290 294 296 297 296 295 296 297 295 294 289 291 291 283 280 281 288 290 292 294 293 292 292 293 293 294 295 295 295 295 296 296 298 297 297
297 298 299 299 302 302 302 304 303 299 294 289 289 283 286 289 290 292 295 294 298 297 297 296 297 297 295 294 292 290 287 284 282 281 287 289 291 293 292 292 292 292 292 293 295 294 295 295 295 295 296 297 297 297
298 298 297 301 300 301 302 300 297 296 292 289 289 286 289 287 288 292 294 291 296 296 298 297 294 292 292 292 291 289 289 283 284 292 290 291 290 291 293 293 293 293 293 294 295 295 296 295 295 295 296 297 297 297
297 291 298 300 300 300 301 295 293 290 288 287 286 289 288 287 287 289 290 291 296 294 290 293 290 290 294 290 290 294 289 292 293 292 291 291 290 292 294 294 293 294 294 295 295 295 296 296 296 296 294 296 297 298
292 293 299 299 298 296 294 294 291 288 285 286 284 285 288 290 290 291 292 293 292 292 291 290 295 290 288 288 290 293 293 293 295 294 292 294 294 295 294 294 294 294 294 296 295 296 296 295 295 294 295 296 296 297
294 294 298 299 296 292 289 289 290 285 285 286 286 288 289 290 291 292 293 294 294 296 295 295 292 290 291 294 293 296 294 293 291 291 292 295 297 296 297 296 294 294 295 295 295 294 295 296 296 296 296 296 294 295
298 298 299 298 296 290 287 288 292 287 284 285 287 287 287 288 291 291 292 293 292 292 293 291 292 295 295 298 300 301 298 294 292 289 289 295 297 298 297 296 294 294 295 296 296 294 295 295 296 296 297 296 295 295
295 294 297 295 291 290 289 288 289 289 287 286 289 289 290 291 290 290 290 294 291 290 289 294 295 298 301 302 300 300 297 295 292 291 290 291 297 298 297 296 295 296 295 294 294 294 294 294 295 296 296 296 296 296
292 297 294 295 290 290 288 289 287 291 289 289 290 292 290 289 289 290 294 290 290 291 293 294 295 299 300 300 299 300 301 297 295 293 293 295 296 297 297 297 295 295 295 295 294 294 294 295 296 296 295 296 295 296
295 295 292 290 286 285 284 289 287 290 285 288 292 289 289 291 294 296 291 292 292 295 295 294 300 301 300 300 301 300 300 296 293 293 294 294 296 299 298 297 298 295 294 294 296 296 295 294 294 295 295 294 293 294
295 289 286 284 285 282 288 286 288 288 289 287 287 287 289 291 297 293 290 290 292 294 298 300 300 297 298 298 298 297 295 295 293 293 297 296 294 297 299 297 296 297 297 297 296 296 296 295 293 295 293 293 293 293
284 282 285 282 287 284 285 287 288 287 286 288 288 288 291 294 290 290 289 292 296 296 296 298 298 297 297 297 298 299 297 297 295 293 294 295 294 294 298 297 295 297 297 294 294 294 293 295 294 293 294 293 292 292
279 284 282 285 286 285 286 285 287 287 288 288 289 291 293 290 288 288 292 293 295 295 295 298 296 298 299 299 298 297 297 297 297 295 294 295 296 296 294 293 294 295 298 297 296 294 293 293 293 293 293 291 288 293
281 283 287 291 290 290 289 290 292 288 288 288 291 291 291 287 287 292 296 299 298 299 300 303 302 301 298 298 301 301 300 300 299 299 299 298 297 297 297 295 295 297 300 300 298 296 295 293 294 293 293 293 292 293
286 289 286 289 290 289 287 288 289 288 290 292 292 289 288 290 291 296 299 303 304 304 302 302 302 301 300 299 300 301 302 305 305 303 301 299 298 299 301 299 299 293 300 301 299 299 297 295 294 294 294 293 292 294
286 290 291 288 289 290 290 289 291 293 295 294 288 289 292 297 299 299 300 302 303 301 298 298 298 300 300 299 299 299 304 300 301 297 295 293 293 296 300 301 301 300 301 299 289 295 299 297 297 296 296 295 294 294
287 290 287 288 288 287 291 294 293 296 297 297 295 295 297 299 301 304 301 301 301 300 299 298 296 296 294 295 294 294 295 299 301 301 296 294 297 300 303 303 301 299 301 301 298 296 287 292 291 295 295 295 294 294
290 290 289 289 289 293 294 295 295 297 298 297 296 294 295 297 300 304 303 303 303 301 298 295 295 296 295 293 292 291 291 294 294 299 299 300 302 303 304 304 303 302 300 300 298 296 296 295 295 296 296 295 295 295
289 288 287 287 290 296 297 294 293 294 295 296 295 295 295 296 294 298 301 300 296 295 291 294 294 294 296 296 295 294 289 296 295 292 296 297 302 303 304 304 304 304 302 299 300 297 297 297 298 297 296 296 297 297
288 289 289 291 290 291 294 291 292 293 294 294 294 295 296 293 293 297 302 301 300 298 295 295 296 298 301 300 296 293 293 296 292 286 286 286 287 295 303 304 305 305 301 298 298 297 297 297 297 298 296 295 295 296
Wind_Speed
14 16 17 17 18 19 19 19 21 20 20 19 17 16 15 8 8 4 4 3 3 4 11 12 7 5 3 1 4 6 6 4 4 5 3 2 3 3 4 3 3 3 4 3 4 4 5 12 6 5 9 17 21 20
15 16 17 17 18 18 19 20 22 22 20 18 17 16 16 8 8 9 2 2 2 4 8 8 14 20 20 24 5 5 5 2 5 2 2 2 3 3 5 4 3 3 3 3 4 7 3 5 8 9 13 17 12 14
15 16 17 17 19 20 19 18 19 21 20 16 16 15 8 6 6 11 2 1 2 3 8 6 8 6 6 10 14 4 3 5 3 4 3 2 5 2 3 4 3 1 2 4 4 1 5 12 7 11 16 17 12 11
15 16 17 17 18 19 19 18 19 20 18 14 11 5 6 5 7 11 2 3 1 4 5 8 5 11 8 14 9 19 5 4 5 2 2 3 3 6 3 4 3 2 3 4 9 9 11 3 12 14 18 14 12 12
15 16 17 17 18 19 19 18 18 17 13 12 11 9 8 9 5 3 3 4 5 2 4 8 20 9 3 8 13 16 10 5 3 2 3 4 3 2 2 2 3 3 3 3 4 6 4 10 11 17 16 9 11 10
14 15 17 18 18 19 19 17 15 13 14 12 12 12 8 3 5 1 3 1 4 3 4 5 6 8 8 3 7 9 11 5 4 4 3 3 2 4 2 3 3 4 5 8 4 7 11 13 11 10 10 9 8 9
14 15 15 17 18 18 18 17 16 15 12 14 11 5 4 7 2 2 3 2 2 2 2 6 7 7 6 4 2 3 5 4 3 3 3 3 3 4 2 3 4 4 7 4 7 9 7 4 6 8 7 8 7 8
14 15 15 16 16 18 19 18 18 15 13 3 2 2 0 1 4 4 3 10 6 2 1 4 7 7 3 2 3 4 4 3 3 3 2 3 1 2 4 4 3 3 4 3 5 7 5 8 4 7 6 7 9 9
13 14 15 15 15 17 18 18 18 8 4 5 5 5 2 0 2 3 1 7 2 2 3 3 3 6 6 2 2 1 3 3 2 4 4 5 3 5 4 2 2 1 2 3 4 5 4 3 4 8 7 9 9 9
13 13 14 15 15 15 16 17 12 6 6 8 3 2 3 1 4 2 2 1 1 1 2 5 2 6 4 3 4 2 0 4 3 6 2 2 3 1 3 3 1 3 2 2 2 2 3 3 5 7 8 6 7 9
13 14 14 15 15 16 16 17 19 8 6 2 2 2 2 5 2 3 3 3 3 4 5 6 7 5 4 4 5 3 2 2 1 5 4 1 3 3 5 3 2 4 1 1 2 0 2 3 5 4 7 8 8 11
14 15 15 16 17 16 16 16 14 2 2 2 3 4 2 3 4 4 3 3 5 5 4 3 5 7 5 5 3 2 2 1 4 2 3 3 3 5 6 6 4 3 2 3 2 1 5 5 5 5 6 7 8 11
14 15 16 17 18 18 18 15 14 9 3 2 2 3 3 3 4 4 4 3 2 3 2 3 4 4 3 2 3 2 2 5 1 2 4 4 4 6 9 8 5 2 4 4 4 2 6 8 7 6 7 7 11 13
15 15 17 19 19 16 12 13 9 3 1 1 2 4 4 4 5 5 3 4 6 4 3 7 4 4 2 2 3 3 5 2 1 1 5 3 4 5 7 8 7 7 4 3 3 7 6 7 9 7 7 7 11 12
14 15 18 15 4 9 11 8 10 1 2 2 3 6 7 6 5 5 5 3 3 3 3 3 3 1 3 5 3 0 2 3 5 5 2 4 7 8 8 8 8 7 6 4 4 8 8 9 10 9 7 8 11 12
13 14 4 6 14 13 2 5 2 0 1 3 6 6 7 5 8 4 4 4 3 2 2 3 4 4 6 3 2 5 2 3 4 2 3 5 5 5 7 9 8 8 6 5 5 6 9 9 8 11 8 8 9 11
11 4 7 13 14 10 7 3 2 4 4 6 6 8 8 8 9 7 4 5 3 2 1 2 4 4 4 3 4 4 4 4 4 4 4 6 8 7 8 9 10 9 8 5 8 6 8 9 9 9 11 9 8 8
5 6 11 6 8 3 2 1 3 4 7 7 6 5 6 7 8 7 4 3 1 3 3 2 3 2 4 2 1 3 3 3 3 5 5 5 7 9 8 9 9 10 9 6 9 8 9 11 9 7 9 9 8 8
7 6 13 13 1 2 2 3 3 5 8 5 6 7 6 7 7 7 3 2 3 3 1 2 6 4 3 2 2 6 2 2 2 2 3 6 8 9 9 9 10 10 8 7 8 7 4 7 6 7 7 8 7 7
14 17 16 13 7 3 4 3 3 5 6 5 4 5 5 5 7 4 5 4 3 3 4 5 5 4 3 4 4 3 3 5 5 4 3 3 4 6 11 9 7 10 7 9 6 8 4 6 3 3 6 8 7 5
5 6 11 6 3 5 4 3 4 5 5 5 4 3 4 3 4 5 6 4 3 4 4 5 6 3 4 5 3 6 7 6 4 4 5 4 4 5 9 7 9 8 7 7 7 6 9 5 4 3 5 5 4 6
3 2 1 5 4 4 5 5 5 4 4 4 4 4 3 4 4 5 4 4 4 5 5 4 4 4 5 6 5 4 7 8 7 5 6 7 6 5 8 9 8 7 7 7 8 6 7 6 3 3 5 6 5 9
1 3 2 3 4 5 6 4 5 4 4 4 2 2 3 3 3 1 3 4 5 6 5 3 4 4 6 3 4 4 5 9 6 5 6 4 5 5 6 8 9 8 7 9 9 8 8 11 8 7 4 6 6 11
4 2 4 4 6 5 4 5 4 4 4 4 4 5 5 2 4 2 4 4 4 1 3 8 7 5 3 2 5 4 3 4 5 4 4 6 4 6 7 5 4 5 9 9 8 10 9 9 9 8 5 5 8 9
4 6 4 6 5 5 6 4 4 4 5 5 8 9 4 4 2 4 2 4 4 5 5 3 3 3 4 4 3 4 5 7 8 6 4 5 4 4 5 4 4 4 4 7 7 11 10 11 11 8 9 8 9 10
6 7 7 6 5 6 5 3 3 4 5 4 5 4 1 2 2 3 3 2 2 0 2 3 4 2 3 3 4 5 7 5 6 5 4 5 7 8 6 5 5 4 4 5 7 10 11 11 11 10 8 10 9 10
6 6 6 5 3 2 4 4 4 4 5 3 4 4 4 2 2 1 2 2 2 1 2 2 3 5 3 2 2 3 4 7 9 8 5 6 5 6 8 8 7 6 4 5 6 11 12 12 10 11 9 8 9 8
6 2 4 3 3 4 6 5 3 4 4 5 6 2 1 4 2 2 1 1 2 3 4 4 5 4 5 5 4 4 4 2 4 6 5 4 2 3 5 5 6 12 6 6 7 8 10 10 11 11 12 11 8 9
5 4 4 7 7 4 4 4 2 2 2 1 1 2 3 2 3 1 2 3 3 4 4 5 4 5 5 5 6 5 5 3 9 11 12 6 4 4 4 4 4 8 7 5 6 7 9 10 10 10 13 11 10 10
6 4 3 5 5 4 1 2 2 3 3 3 3 2 1 3 4 3 4 4 4 4 4 6 4 5 5 4 3 4 4 4 4 2 7 7 6 4 6 5 5 5 6 8 6 5 3 5 4 4 9 8 8 10
3 2 2 4 3 2 2 2 3 2 2 2 1 2 2 2 4 7 6 4 3 4 7 6 5 4 5 4 4 3 2 2 5 4 3 3 4 7 7 6 5 4 4 8 8 6 7 6 5 10 12 12 12 11
3 5 3 1 2 2 3 3 3 2 3 2 2 3 3 3 2 4 5 5 6 6 4 5 5 3 3 4 3 3 2 3 3 3 4 3 1 5 7 8 8 4 4 7 10 4 10 13 8 11 13 14 13 12
3 3 3 4 3 3 1 2 3 2 2 3 2 3 1 3 3 1 3 5 4 4 4 2 3 4 4 4 4 2 1 2 2 3 3 3 3 2 4 6 5 4 3 5 6 6 9 12 10 12 11 11 10 12
Wind_Direction
326 329 328 328 326 325 324 321 322 321 308 306 303 305 302 245 225 166 275 254 224 242 282 253 251 215 304 199 183 277 2 339 26 40 355 323 275 292 307 254 266 283 318 304 319 280 296 17 354 24 305 297 298 299
328 325 325 327 327 327 324 329 329 320 311 299 297 298 297 236 226 172 246 272 254 228 259 283 262 258 250 253 201 219 205 248 201 127 237 268 258 268 285 281 159 265 220 263 205 241 312 349 301 318 308 305 313 305
328 327 324 327 330 329 322 325 328 322 320 304 298 299 284 256 241 175 202 304 324 271 278 271 259 269 218 224 199 169 262 200 187 178 154 216 260 259 264 255 272 242 152 249 316 290 316 314 324 326 320 314 314 323
328 328 329 328 328 326 329 327 325 324 330 332 319 317 290 266 273 185 193 184 209 270 278 282 317 283 272 292 192 205 183 70 109 127 184 216 236 200 260 257 228 230 317 256 265 288 323 186 333 332 316 321 335 339
329 329 329 328 326 328 330 326 323 322 332 337 332 315 291 305 197 205 243 220 200 225 283 291 298 277 270 238 203 198 188 143 150 161 203 231 234 236 251 247 241 197 238 254 273 330 267 283 319 322 314 342 332 346
326 330 330 327 327 330 329 326 326 333 330 329 328 314 294 237 129 37 304 47 196 213 280 304 287 289 304 236 182 185 200 193 164 173 207 241 241 173 246 252 193 211 236 247 274 314 293 290 304 302 313 334 346 11
327 331 333 329 325 330 332 329 327 326 323 323 320 354 105 141 135 199 263 274 254 304 271 303 297 273 284 237 167 127 146 193 157 188 219 231 201 202 242 250 197 261 265 276 287 296 286 309 305 318 340 343 17 14
324 330 333 332 326 335 335 335 329 321 320 38 27 4 85 213 271 297 261 251 205 270 255 266 272 315 256 259 201 164 146 161 210 201 243 196 117 219 252 241 258 274 280 276 315 310 302 288 322 342 8 12 42 21
313 321 330 335 331 331 335 334 332 349 7 342 323 306 304 345 248 247 102 53 97 153 255 241 254 271 332 311 264 92 140 171 176 200 238 133 179 227 228 201 233 248 291 325 325 325 321 87 17 11 26 23 54 36
312 313 325 334 335 328 332 342 336 315 309 324 315 309 277 262 281 163 324 76 51 314 239 248 277 266 9 332 293 17 108 197 188 233 156 144 247 132 127 141 177 168 214 268 332 332 17 75 46 17 32 27 61 63
308 310 313 326 331 328 326 333 336 300 305 342 318 264 293 313 283 216 242 205 158 232 214 236 225 235 267 194 240 195 222 238 20 264 131 271 284 176 139 119 63 121 205 296 101 183 34 70 103 45 43 46 67 70
306 308 312 313 313 323 324 320 330 304 280 299 299 283 282 259 222 253 235 206 210 239 203 213 224 202 253 211 208 275 206 18 243 194 80 278 225 138 141 136 107 96 127 107 137 127 131 110 108 71 58 50 69 79
305 307 310 311 312 312 314 302 299 283 303 288 253 257 245 229 257 225 228 230 267 335 279 235 317 268 268 311 272 138 225 236 67 61 228 232 173 148 130 128 123 97 113 121 130 72 112 111 110 83 68 62 85 86
303 305 309 310 312 311 318 291 275 166 229 269 268 266 234 219 238 204 249 261 241 243 318 345 281 234 253 326 217 195 230 91 355 240 239 199 158 132 128 133 139 137 131 126 150 128 121 120 139 104 68 77 81 83
303 308 306 302 348 338 342 341 143 158 177 234 239 240 236 243 279 266 270 322 302 301 311 313 293 309 265 234 216 83 204 232 200 226 231 145 147 151 145 142 142 138 150 130 133 140 111 106 106 117 89 93 89 92
304 313 240 334 338 336 309 122 60 193 175 235 232 249 252 300 278 267 288 310 292 271 258 73 274 242 234 229 224 212 180 236 258 222 131 126 125 126 146 138 145 143 151 132 128 111 132 128 116 124 119 102 101 98
301 230 297 323 317 342 142 120 185 213 223 225 236 237 259 279 265 266 258 256 252 76 336 283 271 327 297 268 352 23 188 195 177 134 125 145 149 141 137 145 150 149 155 146 138 135 124 126 125 115 129 134 111 115
243 268 303 52 14 346 333 246 246 226 241 233 244 230 219 235 254 271 266 243 116 133 134 232 307 268 279 298 351 319 331 13 38 117 131 133 127 133 150 147 152 151 155 146 143 143 128 142 142 128 124 117 103 110
257 265 286 291 215 325 264 231 232 254 242 246 253 247 246 258 246 242 223 248 228 187 216 155 253 234 207 197 292 282 221 167 145 103 105 128 142 150 148 147 153 152 146 147 139 151 128 128 118 136 132 130 131 124
273 271 270 268 159 235 244 233 215 252 260 240 248 239 220 228 252 227 233 222 182 196 196 191 220 277 201 208 192 179 167 147 136 106 107 122 137 144 157 153 151 158 152 135 134 136 150 134 92 95 141 145 157 158
274 259 240 173 160 225 262 251 240 244 267 249 273 267 256 277 257 234 240 188 175 194 228 214 227 225 113 129 142 147 157 148 168 158 164 149 156 137 154 151 145 159 141 151 147 140 157 159 143 100 132 131 113 124
248 7 152 172 220 223 249 230 249 282 236 243 280 217 274 270 245 213 189 155 209 209 196 213 222 183 145 173 196 213 151 147 144 128 108 126 147 152 154 157 156 167 154 155 155 158 148 168 145 165 162 165 157 144
158 166 220 222 218 230 253 199 232 225 247 253 134 290 283 265 272 148 201 211 222 205 203 179 147 138 128 116 113 90 136 135 129 137 141 147 144 147 155 150 168 165 163 170 162 160 162 168 178 194 207 180 127 152
82 228 222 216 209 257 239 221 215 242 240 231 246 245 229 247 292 205 228 228 238 167 106 140 140 119 111 103 140 140 144 114 119 129 145 140 142 156 172 161 152 158 173 171 180 169 168 178 168 178 199 138 138 149
203 225 226 226 209 228 246 232 216 225 247 232 279 279 184 155 248 235 198 357 37 50 70 89 143 146 153 131 135 146 166 159 154 160 182 147 135 128 150 147 166 174 144 140 145 158 166 170 176 181 162 153 157 155
222 217 205 217 208 215 228 272 317 317 297 242 244 265 100 137 300 14 36 304 302 267 225 124 130 169 286 153 138 157 181 160 137 148 197 168 160 162 162 154 166 204 167 157 161 155 162 169 178 163 145 154 159 153
240 240 207 226 262 59 314 303 247 218 249 291 0 7 328 258 54 43 301 281 282 201 311 342 105 99 130 96 120 124 143 159 172 184 156 170 166 160 164 170 179 195 162 155 174 176 164 168 165 169 164 162 168 164
253 263 225 292 270 198 239 272 259 352 355 347 313 316 1 8 61 277 155 76 63 124 79 71 76 80 73 60 53 69 61 119 123 108 91 76 141 171 163 161 164 173 173 166 160 163 170 166 175 170 169 175 177 180
240 245 181 226 225 265 252 228 119 161 226 257 326 311 353 12 320 17 22 108 93 87 78 86 65 78 65 56 45 25 24 100 148 161 169 177 174 236 204 171 149 179 181 168 157 155 162 164 174 180 180 179 176 175
243 199 241 288 293 263 136 40 113 212 181 198 179 263 336 13 340 355 51 62 64 57 55 70 68 69 65 80 70 33 13 27 23 190 185 194 200 164 174 167 158 162 171 176 173 169 122 132 86 141 166 165 169 179
271 332 250 226 245 85 71 303 279 258 232 170 97 99 87 34 9 14 11 358 43 80 73 61 54 61 84 66 57 74 356 344 356 334 343 292 192 170 171 167 186 150 157 185 164 167 169 185 163 167 179 173 177 174
202 215 239 320 78 63 57 310 352 359 340 83 82 88 98 81 55 343 335 76 72 70 64 80 86 102 113 108 97 82 61 328 335 326 334 327 195 170 178 178 195 168 133 176 175 159 184 183 180 178 178 174 172 171
224 268 232 78 10 306 210 60 17 85 297 107 83 61 331 101 91 163 22 26 76 95 99 78 87 80 99 113 132 152 311 329 335 353 339 319 306 195 160 163 143 174 184 169 169 194 172 167 161 167 168 164 162 166